Home   Weather   Gerasdorf bei Wien   Past weeks

Flag for Austria Past Weather in Gerasdorf bei Wien, Lower Austria, Austria — Yesterday and Last 2 Weeks

Now
24 °F

Clear.


Feels Like: 24 °F
Forecast: 12 / 24 °F
Wind: 2 mph from North

Location: Wien / Hohe Warte

Current Time: Jan 19, 2017 at 6:09:21 pm

Latest Report: Jan 19, 2017 at 5:00 pm


Visibility: 5 mi

Pressure: 30.67 "Hg

Humidity: 75%

Dew Point: 17 °F

Location of Gerasdorf bei WienLocation

Past Weather in Gerasdorf bei Wien — Graph

°F

Gerasdorf bei Wien Temperature Yesterday

Maximum temperature yesterday: 29 °F (at 2:00 pm)
Minimum temperature yesterday: 21 °F (at 11:00 pm)
Average temperature yesterday: 26 °F

High & Low Weather Summary for the Past Weeks

 TemperatureHumidityPressure
High44 °F (Jan 12, 1:00 pm)92% (Jan 8, 6:00 am)30.71 "Hg (Jan 8, 6:00 am)
Low10 °F (Jan 11, 7:00 am)41% (Jan 7, 2:00 pm)29.41 "Hg (Jan 13, 6:00 am)
Average27 °F72%30.20 "Hg
* Reported Jan 4 4:00 pm — Jan 19 4:00 pm, Gerasdorf bei Wien, Weather by CustomWeather, © 2017

Note: Actual official high and low records may vary slightly from our data, if they occured in-between our weather recording intervals... More about our weather records

Advertising

Gerasdorf bei Wien Weather History for the Previous 24 Hours

Scroll right to see more
 ConditionsComfort  
Time TempWeatherWind HumidityBarometerVisibility
4:00 pm
Thu, Jan 19
25 °FChilly.2 mph71%30.66 "HgN/A
3:00 pm25 °FChilly.2 mph69%30.66 "HgN/A
2:00 pm26 °FSunny.3 mph69%30.67 "Hg5 mi
1:00 pm24 °FSunny.3 mph71%30.67 "Hg5 mi
12:00 pm24 °FCold.1 mph73%30.69 "HgN/A
11:00 am23 °FPassing clouds.No wind76%30.71 "Hg5 mi
10:00 am22 °FPassing clouds.2 mph76%30.71 "Hg5 mi
9:00 am18 °FCold.1 mph84%30.71 "HgN/A
8:00 am17 °FSunny.1 mph88%30.71 "Hg5 mi
7:00 am17 °FClear.2 mph88%30.69 "Hg5 mi
6:00 am17 °FClear.2 mph86%30.69 "Hg5 mi
5:00 am17 °FCold.1 mph86%30.69 "HgN/A
4:00 am18 °FCold.2 mph85%30.68 "HgN/A
3:00 am18 °FCold.1 mph84%30.68 "HgN/A
2:00 am18 °FCold.2 mph84%30.68 "HgN/A
1:00 am19 °FClear.2 mph83%30.68 "Hg6 mi
12:00 am20 °FCold.2 mph82%30.67 "HgN/A
11:00 pm
Wed, Jan 18
21 °FCold.2 mph82%30.68 "HgN/A
10:00 pm22 °FClear.3 mph82%30.68 "Hg6 mi
9:00 pm22 °FCold.2 mph80%30.68 "HgN/A
8:00 pm23 °FClear.1 mph79%30.67 "Hg6 mi
7:00 pm24 °FClear.3 mph77%30.65 "Hg6 mi
6:00 pm26 °FPassing clouds.2 mph74%30.64 "Hg6 mi
Weather by CustomWeather, © 2017

See weather overviewHow to use our weather pages